Location: Brunembert
(50.7122°N, 1.8935°E)
Time: 10:46:27
(UTC+00:00)

NOSS 2-2 (E) - Pass Details

Date: 22 April 2021
Orbit: 459 x 1746 km, 63.3° (Epoch: 02 May)

Event Time Altitude Azimuth Distance (km) Brightness Sun altitude
Rises 23:07:18 0° 315° (NW) 3,070 8.0 -26.0°
Reaches altitude 10° 23:09:20 10° 315° (NW) 2,289 7.2 -26.1°
Maximum altitude 23:14:37 83° 228° (SW) 956 4.3 -26.3°
Enters shadow 23:15:39 65° 153° (SSE) 1,075 4.4 -26.3°
